Location: Altavilla Irpina
(41.0000°N, 14.7833°E)
Time: 20:31:08
(UTC+00:00)

Cosmos 1934 Rocket - Pass Details

Date: 19 May 2025
Orbit: 938 x 997 km, 83.0° (Epoch: 20 June)

Event Time Altitude Azimuth Distance (km) Brightness Sun altitude
Rises 21:26:03 0° 357° (N) 3,672 8.1 -25.4°
Reaches altitude 10° 21:28:39 10° 3° (N) 2,730 7.2 -25.6°
Maximum altitude 21:34:44 52° 78° (ENE) 1,214 4.3 -26.1°
Enters shadow 21:35:33 49° 104° (ESE) 1,259 4.3 -26.1°
